Simultaneous Nadir Overpasses (SNOs) Predictions

Prediction of SNOs between GOES-16 and AQUA Satellite Orbit:

Table of predicted SNOs for the next 14.0 days since TLE Epoch: 4/17/2020
Index Date Time (GOES-16) GOES-16 Lat,Lon AQUA Lat,Lon Distance(km) Time Diff (sec)
1 04/18/2020 06:38:36 -0.01, -75.17 0.05, -75.37 23.39 80
2 04/20/2020 06:23:44 -0.01, -75.17 -0.56, -72.41 313.29 80
3 04/20/2020 18:45:09 0.00, -75.18 -0.50, -77.61 275.56 80
4 04/22/2020 18:35:37 0.01, -75.19 0.12, -74.65 61.78 80
5 04/24/2020 18:23:25 0.01, -75.21 0.74, -71.69 399.47 80
6 04/25/2020 06:44:40 -0.01, -75.20 0.37, -76.84 187.51 80
7 04/27/2020 06:29:49 -0.01, -75.21 -0.31, -73.90 150.46 80
8 04/27/2020 18:51:12 0.01, -75.23 -0.81, -79.09 438.56 80
9 04/29/2020 06:17:37 -0.00, -75.23 -0.94, -70.94 488.61 80
10 04/29/2020 18:39:01 0.00, -75.24 -0.18, -76.13 100.25 80
11 05/01/2020 18:29:29 -0.00, -75.27 0.45, -73.17 238.49 80




NCC Satellite Simultaneous Nadir Overpasses (SNOs) Prediction Service
